Weather in Victoria Falls

Zimbabwe     17°55′49″S   25°49′59″E
temp.,
°C
wind,
m/s
gust,
m/s
humid.,
%
clouds,
%
prec.,
mm/h
press.,
hPa
HPBL,
m
2 december, thu
thu223:00+25e232987 0.0 100938
02:00+23e11335 0.0 100812
05:00+23ne1236100 0.0 101030
08:00+29ne49246 0.0 1011876
11:00+36ne34165 0.0 10093320
14:00+37e441466 0.0 10053753
17:00+37e441349 0.0 10034089
20:00+29ese39214 0.0 1007193
3 december, fri
fri323:00+26ese122612 0.0 100815
02:00+25se112746 0.0 100713
05:00+24ene222887 0.0 101037
08:00+30ene59255 0.0 1011942
11:00+37ne46197 0.0 10093611
14:00+38ene351473 0.0 10044466
17:00+35ese351837 0.0 10051797
20:00+29ene24311 0.0 100865
4 december, sat
sat423:00+27ne123347 0.0 100826
02:00+27ene123267 0.0 100845
05:00+25ne3937100 0.0 1009218
08:00+32nne510255 0.0 10101203
11:00+37n5519100 0.0 10094072
14:00+33nne242572 0.1 10071135
17:00+37ese44183 0.1 10042384
20:00+28wsw233291 0.1 100763
5 december, sun
sun523:00+27s223882 0.1 100953
02:00+24wsw224976 0.2 100935
05:00+25s264671 0.0 1010151
08:00+28ese243638 0.0 1011332
11:00+36e35197 0.0 10092821
14:00+38wnw451566 0.0 10053074
17:00+35ese571861 0.0 10031070
20:00+30ssw3829100 0.0 1007263
6 december, mon
mon623:00+27wsw484771 0.1 1011738
02:00+24ssw2658100 0.1 1011230
05:00+23sw266083 0.0 1012262
08:00+25sse4752100 0.0 1012330
11:00+35nw242591 0.0 10101819
14:00+36n2319100 0.0 10063812
17:00+29sw463897 0.2 1007322
20:00+25ssw4104979 0.2 1009246